"read_dt","SO2 (ppb)","flags","PMT voltage (V)","lamp voltage (V)","lamp intensity (Hz)","internal temp (C)","react chamber temp (C)","sample flow (l/min)","pres (mmHg)","SO2 bkg (ppb)","SO2 coefficient"
2013-08-16 00:00:00,2537E-4,5C000000,-0724,0940,11176,029.4,045.4,0.387,734.2,01.18,0.508
2013-08-16 00:01:00,1086E-4,5C000000,-0724,0941,11031,029.4,045.4,0.388,734.2,01.18,0.508
2013-08-16 00:02:00,2809E-4,5C000000,-0724,0941,10983,029.4,045.4,0.388,734.2,01.18,0.508
2013-08-16 00:03:00,1683E-4,5C000000,-0724,0941,11024,029.4,045.4,0.387,734.2,01.18,0.508
2013-08-16 00:04:00,1344E-4,5C000000,-0724,0941,11242,029.4,045.4,0.387,734.2,01.18,0.508
2013-08-16 00:05:00,1911E-4,5C000000,-0724,0940,11013,029.4,045.4,0.387,734.2,01.18,0.508
2013-08-16 00:06:00,1810E-4,5C000000,-0724,0940,11079,029.4,045.4,0.388,734.2,01.18,0.508
2013-08-16 00:07:00,1781E-4,5C000000,-0724,0941,11141,029.4,045.4,0.388,734.2,01.18,0.508
2013-08-16 00:08:00,1766E-4,5C000000,-0724,0941,11021,029.4,045.4,0.387,734.2,01.18,0.508
2013-08-16 00:09:00,1616E-4,5C000000,-0724,0941,11143,029.4,045.4,0.387,734.2,01.18,0.508
2013-08-16 00:10:00,1568E-4,5C000000,-0724,0941,11097,029.4,045.4,0.387,734.2,01.18,0.508
2013-08-16 00:11:00,1694E-4,5C000000,-0724,0942,11032,029.4,045.4,0.388,734.2,01.18,0.508
2013-08-16 00:12:00,1610E-4,5C000000,-0724,0941,11090,029.4,045.4,0.387,734.2,01.18,0.508
2013-08-16 00:13:00,1804E-4,5C000000,-0724,0941,11046,029.4,045.4,0.387,734.2,01.18,0.508
2013-08-16 00:14:00,2173E-4,5C000000,-0724,0941,10983,029.5,045.4,0.387,734.2,01.18,0.508
2013-08-16 00:15:00,2429E-4,5C000000,-0724,0941,11194,029.4,045.4,0.387,734.2,01.18,0.508
2013-08-16 00:16:00,1118E-4,5C000000,-0724,0941,11138,029.4,045.4,0.388,734.2,01.18,0.508
2013-08-16 00:17:00,9451E-5,5C000000,-0724,0942,11068,029.4,045.4,0.387,734.2,01.18,0.508
2013-08-16 00:18:00,1847E-4,5C000000,-0724,0940,10989,029.4,045.4,0.387,734.2,01.18,0.508
2013-08-16 00:19:00,1367E-4,5C000000,-0724,0941,11128,029.5,045.4,0.387,734.1,01.19,0.508
2013-08-16 00:20:00,2492E-4,5C000000,-0724,0941,11187,029.5,045.4,0.388,734.1,01.19,0.508
2013-08-16 00:21:00,2176E-4,5C000000,-0724,0941,11232,029.5,045.4,0.388,734.2,01.18,0.508
2013-08-16 00:22:00,1169E-4,5C000000,-0724,0940,11062,029.5,045.4,0.387,734.2,01.18,0.508
2013-08-16 00:23:00,2054E-4,5C000000,-0724,0940,11096,029.5,045.4,0.387,734.1,01.19,0.508
2013-08-16 00:24:00,2272E-4,5C000000,-0724,0941,10995,029.5,045.4,0.387,734.2,01.18,0.508
2013-08-16 00:25:00,1520E-4,5C000000,-0724,0941,11029,029.5,045.4,0.388,734.1,01.19,0.508
2013-08-16 00:26:00,1476E-4,5C000000,-0724,0942,11108,029.5,045.4,0.387,734.2,01.18,0.508
2013-08-16 00:27:00,8305E-5,5C000000,-0724,0941,11155,029.5,045.4,0.387,734.1,01.19,0.508
2013-08-16 00:28:00,2127E-4,5C000000,-0724,0942,11158,029.5,045.4,0.387,734.2,01.18,0.508
2013-08-16 00:29:00,2384E-4,5C000000,-0724,0941,11044,029.5,045.4,0.387,734.2,01.18,0.508
2013-08-16 00:30:00,1531E-4,5C000000,-0724,0941,10992,029.5,045.4,0.388,734.2,01.18,0.508
2013-08-16 00:31:00,1119E-4,5C000000,-0724,0941,11061,029.5,045.4,0.387,734.2,01.18,0.508
2013-08-16 00:32:00,1280E-4,5C000000,-0724,0941,11128,029.5,045.4,0.387,734.2,01.18,0.508
2013-08-16 00:33:00,1843E-4,5C000000,-0724,0941,11131,029.5,045.4,0.387,734.2,01.18,0.508
2013-08-16 00:34:00,1656E-4,5C000000,-0724,0941,10933,029.5,045.4,0.388,734.2,01.18,0.508
2013-08-16 00:35:00,2520E-4,5C000000,-0724,0941,11185,029.5,045.4,0.387,734.2,01.18,0.508
2013-08-16 00:36:00,1769E-4,5C000000,-0724,0941,11104,029.5,045.4,0.387,734.2,01.18,0.508
2013-08-16 00:37:00,7844E-6,5C000000,-0724,0941,11092,029.5,045.4,0.387,734.2,01.18,0.508
2013-08-16 00:38:00,8866E-5,5C000000,-0724,0941,10999,029.5,045.4,0.387,734.2,01.18,0.508
2013-08-16 00:39:00,1515E-4,5C000000,-0724,0941,11018,029.5,045.4,0.388,734.2,01.18,0.508
2013-08-16 00:40:00,2295E-4,5C000000,-0724,0942,11088,029.5,045.4,0.387,734.2,01.18,0.508
2013-08-16 00:41:00,1723E-4,5C000000,-0724,0941,11205,029.5,045.4,0.387,734.2,01.18,0.508
2013-08-16 00:42:00,1573E-4,5C000000,-0724,0941,11093,029.5,045.4,0.387,734.2,01.18,0.508
2013-08-16 00:43:00,1991E-4,5C000000,-0724,0941,11076,029.5,045.4,0.388,734.2,01.18,0.508
2013-08-16 00:44:00,1980E-4,5C000000,-0724,0940,11103,029.6,045.4,0.387,734.2,01.18,0.508
2013-08-16 00:45:00,1896E-4,5C000000,-0724,0941,11178,029.6,045.4,0.387,734.2,01.18,0.508
2013-08-16 00:46:00,2179E-4,5C000000,-0724,0941,11094,029.5,045.4,0.387,734.2,01.18,0.508
2013-08-16 00:47:00,2194E-4,5C000000,-0724,0941,11157,029.6,045.4,0.387,734.2,01.18,0.508
2013-08-16 00:48:00,1588E-4,5C000000,-0724,0941,10917,029.6,045.4,0.387,734.2,01.18,0.508
2013-08-16 00:49:00,2337E-4,5C000000,-0724,0941,11138,029.6,045.4,0.387,734.2,01.18,0.508
2013-08-16 00:50:00,2191E-4,5C000000,-0724,0941,11066,029.6,045.4,0.387,734.2,01.18,0.508
2013-08-16 00:51:00,1738E-4,5C000000,-0724,0942,11084,029.6,045.4,0.387,734.2,01.18,0.508
2013-08-16 00:52:00,1185E-4,5C000000,-0724,0941,11042,029.6,045.4,0.387,734.2,01.18,0.508
2013-08-16 00:53:00,2207E-4,5C000000,-0724,0942,11129,029.6,045.4,0.387,734.2,01.18,0.508
2013-08-16 00:54:00,2244E-4,5C000000,-0724,0942,11018,029.6,045.4,0.387,734.2,01.18,0.508
2013-08-16 00:55:00,2051E-4,5C000000,-0724,0940,11079,029.6,045.4,0.387,734.2,01.18,0.508
2013-08-16 00:56:00,7791E-5,5C000000,-0724,0941,11154,029.6,045.4,0.387,734.2,01.18,0.508
2013-08-16 00:57:00,2602E-4,5C000000,-0724,0940,11108,029.6,045.4,0.387,734.2,01.18,0.508
2013-08-16 00:58:00,1128E-4,5C000000,-0724,0940,11089,029.6,045.4,0.387,734.2,01.18,0.508
2013-08-16 00:59:00,9844E-5,5C000000,-0724,0943,11274,029.6,045.4,0.387,734.2,01.18,0.508
2013-08-16 01:00:00,2406E-4,5C000000,-0724,0942,11166,029.6,045.4,0.387,734.2,01.18,0.508
2013-08-16 01:01:00,1785E-4,5C000000,-0724,0942,11102,029.6,045.4,0.387,734.2,01.18,0.508
2013-08-16 01:02:00,1641E-4,5C000000,-0724,0942,11126,029.6,045.4,0.387,734.2,01.18,0.508
2013-08-16 01:03:00,2196E-4,5C000000,-0724,0940,11026,029.6,045.4,0.387,734.2,01.18,0.508
2013-08-16 01:04:00,1574E-4,5C000000,-0724,0941,11137,029.7,045.4,0.387,734.2,01.18,0.508
2013-08-16 01:05:00,2821E-5,5C000000,-0724,0941,11248,029.6,045.4,0.387,734.2,01.18,0.508
2013-08-16 01:06:00,1958E-4,5C000000,-0724,0940,11061,029.6,045.4,0.387,734.1,01.19,0.508
2013-08-16 01:07:00,1419E-4,5C000000,-0724,0941,11098,029.7,045.4,0.387,734.1,01.19,0.508
2013-08-16 01:08:00,1470E-4,5C000000,-0724,0940,11075,029.6,045.4,0.387,734.1,01.19,0.508
2013-08-16 01:09:00,1335E-4,5C000000,-0724,0942,10955,029.7,045.4,0.387,734.1,01.19,0.508
2013-08-16 01:10:00,1257E-4,5C000000,-0724,0941,11197,029.7,045.4,0.387,734.2,01.18,0.508
2013-08-16 01:11:00,2298E-4,5C000000,-0724,0941,10957,029.7,045.4,0.387,734.1,01.19,0.508
2013-08-16 01:12:00,2358E-4,5C000000,-0724,0942,10944,029.7,045.4,0.387,734.1,01.19,0.508
2013-08-16 01:13:00,2257E-4,5C000000,-0724,0942,11125,029.7,045.4,0.387,734.1,01.19,0.508
2013-08-16 01:14:00,1495E-4,5C000000,-0724,0942,11129,029.7,045.4,0.387,734.1,01.19,0.508
2013-08-16 01:15:00,1606E-4,5C000000,-0724,0941,11176,029.7,045.4,0.387,734.1,01.19,0.508
2013-08-16 01:16:00,1559E-4,5C000000,-0724,0942,11194,029.7,045.4,0.386,734.1,01.19,0.508
2013-08-16 01:17:00,1712E-4,5C000000,-0724,0940,11006,029.7,045.4,0.387,734.1,01.19,0.508
2013-08-16 01:18:00,1886E-4,5C000000,-0724,0942,11056,029.7,045.4,0.387,734.1,01.19,0.508
2013-08-16 01:19:00,2122E-4,5C000000,-0724,0941,11191,029.7,045.4,0.387,734.1,01.19,0.508
2013-08-16 01:20:00,1303E-4,5C000000,-0724,0941,11092,029.7,045.4,0.387,734.1,01.19,0.508
2013-08-16 01:21:00,9116E-5,5C000000,-0724,0942,11201,029.7,045.4,0.387,734.2,01.18,0.508
2013-08-16 01:22:00,6053E-5,5C000000,-0724,0941,11171,029.7,045.4,0.387,734.1,01.19,0.508
2013-08-16 01:23:00,1667E-4,5C000000,-0724,0942,11117,029.7,045.4,0.387,734.1,01.19,0.508
2013-08-16 01:24:00,1918E-4,5C000000,-0724,0941,11158,029.7,045.4,0.387,734.1,01.19,0.508
2013-08-16 01:25:00,1647E-4,5C000000,-0724,0941,11130,029.7,045.4,0.386,734.1,01.19,0.508
2013-08-16 01:26:00,1755E-4,5C000000,-0724,0941,11188,029.8,045.4,0.387,734.1,01.19,0.508
2013-08-16 01:27:00,1882E-4,5C000000,-0724,0941,11082,029.8,045.4,0.387,734.1,01.19,0.508
2013-08-16 01:28:00,1973E-4,5C000000,-0724,0941,11023,029.8,045.4,0.386,734.1,01.19,0.508
2013-08-16 01:29:00,1373E-4,5C000000,-0724,0941,11202,029.8,045.4,0.387,734.1,01.19,0.508
2013-08-16 01:30:00,1935E-4,5C000000,-0724,0942,11195,029.8,045.4,0.387,734.1,01.19,0.508
2013-08-16 01:31:00,1563E-4,5C000000,-0724,0941,11138,029.8,045.4,0.387,734.1,01.19,0.508
2013-08-16 01:32:00,2079E-4,5C000000,-0724,0940,10983,029.8,045.4,0.386,734.1,01.19,0.508
2013-08-16 01:33:00,1848E-4,5C000000,-0724,0942,11229,029.8,045.4,0.387,734.1,01.19,0.508
2013-08-16 01:34:00,1887E-4,5C000000,-0724,0942,11065,029.9,045.4,0.387,734.1,01.19,0.508
2013-08-16 01:35:00,2047E-4,5C000000,-0724,0942,11177,029.9,045.4,0.387,734.1,01.19,0.508
2013-08-16 01:36:00,2458E-4,5C000000,-0724,0942,11198,029.8,045.4,0.386,734.1,01.19,0.508
2013-08-16 01:37:00,1999E-4,5C000000,-0724,0941,11112,029.9,045.4,0.387,734.1,01.19,0.508
2013-08-16 01:38:00,2040E-4,5C000000,-0724,0941,11057,029.9,045.4,0.387,734.1,01.19,0.508
2013-08-16 01:39:00,2583E-4,5C000000,-0724,0941,11173,029.9,045.4,0.387,734.1,01.19,0.508
2013-08-16 01:40:00,1926E-4,5C000000,-0724,0941,11190,029.9,045.4,0.386,734.1,01.19,0.508
2013-08-16 01:41:00,2458E-4,5C000000,-0724,0941,11131,029.9,045.4,0.386,734.1,01.19,0.508
2013-08-16 01:42:00,1147E-4,5C000000,-0724,0941,11078,029.9,045.4,0.387,734.1,01.19,0.508
2013-08-16 01:43:00,2011E-4,5C000000,-0724,0941,11069,029.9,045.4,0.387,734.1,01.19,0.508
2013-08-16 01:44:00,8205E-5,5C000000,-0724,0941,11142,029.9,045.4,0.386,734.1,01.19,0.508
2013-08-16 01:45:00,1899E-4,5C000000,-0724,0942,11125,029.9,045.4,0.386,734.1,01.19,0.508
2013-08-16 01:46:00,2381E-4,5C000000,-0724,0942,11154,029.9,045.4,0.386,734.1,01.19,0.508
2013-08-16 01:47:00,1899E-4,5C000000,-0724,0942,11164,029.9,045.4,0.387,734.1,01.19,0.508
2013-08-16 01:48:00,1216E-4,5C000000,-0724,0941,11034,029.9,045.4,0.386,734.1,01.19,0.508
2013-08-16 01:49:00,2135E-4,5C000000,-0724,0941,11133,029.9,045.4,0.386,734.1,01.19,0.508
2013-08-16 01:50:00,2281E-4,5C000000,-0724,0940,11043,029.9,045.4,0.386,734.1,01.19,0.508
2013-08-16 01:51:00,2087E-4,5C000000,-0724,0940,11071,029.9,045.4,0.387,734.1,01.19,0.508
2013-08-16 01:52:00,1093E-4,5C000000,-0724,0941,11172,030.0,045.4,0.386,734.1,01.19,0.508
2013-08-16 01:53:00,1074E-4,5C000000,-0724,0941,11218,030.0,045.4,0.386,734.1,01.19,0.508
2013-08-16 01:54:00,1616E-4,5C000000,-0724,0942,11197,030.0,045.4,0.386,734.1,01.19,0.508
2013-08-16 01:55:00,9075E-5,5C000000,-0724,0941,11130,030.0,045.4,0.387,734.1,01.19,0.508
2013-08-16 01:56:00,2337E-4,5C000000,-0724,0942,11068,030.0,045.4,0.386,734.1,01.19,0.508
2013-08-16 01:57:00,1849E-4,5C000000,-0724,0942,11171,030.0,045.4,0.386,734.1,01.19,0.508
2013-08-16 01:58:00,2321E-4,5C000000,-0724,0943,11133,030.0,045.4,0.387,734.1,01.19,0.508
2013-08-16 01:59:00,2224E-4,5C000000,-0724,0942,11097,030.0,045.4,0.386,734.1,01.19,0.508
2013-08-16 02:00:00,2157E-4,5C000000,-0724,0941,11178,030.0,045.4,0.386,734.1,01.19,0.508
2013-08-16 02:01:00,2722E-4,5C000000,-0724,0940,11142,030.0,045.4,0.386,734.1,01.19,0.508
2013-08-16 02:02:00,2323E-4,5C000000,-0724,0941,11046,030.0,045.4,0.386,734.1,01.19,0.508
2013-08-16 02:03:00,2020E-4,5C000000,-0724,0942,11058,030.0,045.4,0.386,734.1,01.19,0.508
2013-08-16 02:04:00,2279E-4,5C000000,-0724,0942,11114,030.0,045.4,0.387,734.1,01.19,0.508
2013-08-16 02:05:00,1912E-4,5C000000,-0724,0942,11108,030.0,045.4,0.386,734.1,01.19,0.508
2013-08-16 02:06:00,2576E-4,5C000000,-0724,0942,11194,030.0,045.4,0.386,734.1,01.19,0.508
2013-08-16 02:07:00,1509E-4,5C000000,-0724,0942,11194,030.0,045.4,0.386,734.1,01.19,0.508
2013-08-16 02:08:00,9087E-5,5C000000,-0724,0941,11125,030.0,045.5,0.386,734.1,01.19,0.508
2013-08-16 02:09:00,5215E-5,5C000000,-0724,0941,11120,030.0,045.5,0.386,734.1,01.19,0.508
2013-08-16 02:10:00,3104E-4,5C000000,-0724,0941,11091,030.0,045.4,0.386,734.1,01.19,0.508
2013-08-16 02:11:00,2470E-4,5C000000,-0724,0942,11095,030.0,045.4,0.387,734.1,01.19,0.508
2013-08-16 02:12:00,2812E-4,5C000000,-0724,0942,11226,030.0,045.4,0.386,734.1,01.19,0.508
2013-08-16 02:13:00,1502E-4,5C000000,-0724,0942,11102,030.0,045.4,0.386,734.1,01.19,0.508
2013-08-16 02:14:00,2966E-4,5C000000,-0724,0942,10919,030.0,045.4,0.386,734.1,01.19,0.508
2013-08-16 02:15:00,1622E-4,5C000000,-0724,0941,11185,030.1,045.4,0.386,734.1,01.19,0.508
2013-08-16 02:16:00,1835E-4,5C000000,-0724,0941,11128,030.0,045.4,0.386,734.1,01.19,0.508
2013-08-16 02:17:00,1783E-4,5C000000,-0724,0942,11102,030.0,045.4,0.386,734.1,01.19,0.508
2013-08-16 02:18:00,2485E-4,5C000000,-0724,0942,11056,030.0,045.4,0.387,734.1,01.19,0.508
2013-08-16 02:19:00,2383E-4,5C000000,-0724,0941,11080,030.1,045.4,0.386,734.1,01.19,0.508
2013-08-16 02:20:00,9890E-5,5C000000,-0724,0941,10975,030.0,045.4,0.386,734.1,01.19,0.508
2013-08-16 02:21:00,2746E-4,5C000000,-0724,0941,10828,030.0,045.4,0.386,734.1,01.19,0.508
2013-08-16 02:22:00,2419E-4,5C000000,-0724,0941,11142,030.1,045.4,0.386,734.1,01.19,0.508
2013-08-16 02:23:00,1341E-4,5C000000,-0724,0941,11058,030.1,045.4,0.386,734.1,01.19,0.508
2013-08-16 02:24:00,2082E-4,5C000000,-0724,0941,11088,030.1,045.4,0.386,734.1,01.19,0.508
2013-08-16 02:25:00,1079E-4,5C000000,-0724,0942,11136,030.1,045.4,0.387,734.1,01.19,0.508
2013-08-16 02:26:00,1897E-4,5C000000,-0724,0942,11013,030.1,045.4,0.386,734.1,01.19,0.508
2013-08-16 02:27:00,1932E-4,5C000000,-0724,0943,10995,030.1,045.4,0.386,734.1,01.19,0.508
2013-08-16 02:28:00,1841E-4,5C000000,-0724,0941,11154,030.1,045.4,0.386,734.1,01.19,0.508
2013-08-16 02:29:00,1514E-4,5C000000,-0724,0941,11127,030.1,045.4,0.386,734.1,01.19,0.508
2013-08-16 02:30:00,8611E-5,5C000000,-0724,0942,11039,030.1,045.4,0.386,734.1,01.19,0.508
2013-08-16 02:31:00,8756E-5,5C000000,-0724,0942,11095,030.1,045.4,0.386,734.1,01.19,0.508
2013-08-16 02:32:00,1657E-4,5C000000,-0724,0942,11030,030.1,045.4,0.386,734.1,01.19,0.508
2013-08-16 02:33:00,2178E-4,5C000000,-0724,0942,11168,030.1,045.5,0.386,734.1,01.19,0.508
2013-08-16 02:34:00,7327E-5,5C000000,-0724,0942,11073,030.1,045.4,0.386,734.1,01.19,0.508
2013-08-16 02:35:00,1492E-4,5C000000,-0724,0943,11003,030.1,045.4,0.386,734.1,01.19,0.508
2013-08-16 02:36:00,2005E-4,5C000000,-0724,0942,11140,030.1,045.4,0.386,734.1,01.19,0.508
2013-08-16 02:37:00,9792E-5,5C000000,-0724,0941,11098,030.1,045.4,0.386,734.1,01.19,0.508
2013-08-16 02:38:00,1961E-4,5C000000,-0724,0942,11045,030.1,045.4,0.386,734.1,01.19,0.508
2013-08-16 02:39:00,2010E-4,5C000000,-0724,0943,10936,030.1,045.4,0.386,734.1,01.19,0.508
2013-08-16 02:40:00,1761E-4,5C000000,-0724,0943,11146,030.1,045.4,0.386,734.1,01.19,0.508
2013-08-16 02:41:00,1925E-4,5C000000,-0724,0942,11106,030.1,045.4,0.386,734.1,01.19,0.508
2013-08-16 02:42:00,1112E-4,5C000000,-0724,0941,10903,030.1,045.4,0.387,734.1,01.19,0.508
2013-08-16 02:43:00,2196E-4,5C000000,-0724,0942,11116,030.1,045.4,0.386,734.1,01.19,0.508
2013-08-16 02:44:00,1821E-4,5C000000,-0724,0942,11151,030.1,045.4,0.386,734.1,01.19,0.508
2013-08-16 02:45:00,1455E-4,5C000000,-0724,0941,11088,030.1,045.4,0.386,734.1,01.19,0.508
2013-08-16 02:46:00,2278E-4,5C000000,-0724,0942,11192,030.1,045.4,0.386,734.1,01.19,0.508
2013-08-16 02:47:00,1570E-4,5C000000,-0724,0942,11013,030.2,045.4,0.386,734.1,01.19,0.508
2013-08-16 02:48:00,2186E-4,5C000000,-0724,0942,11115,030.1,045.4,0.386,734.1,01.19,0.508
2013-08-16 02:49:00,2120E-4,5C000000,-0724,0943,11215,030.2,045.4,0.386,734.1,01.19,0.508
2013-08-16 02:50:00,2057E-4,5C000000,-0724,0942,10977,030.2,045.4,0.386,734.1,01.19,0.508
2013-08-16 02:51:00,2571E-4,5C000000,-0724,0941,11146,030.2,045.4,0.386,734.1,01.19,0.508
2013-08-16 02:52:00,1982E-4,5C000000,-0724,0942,11124,030.2,045.4,0.386,734.1,01.19,0.508
2013-08-16 02:53:00,2066E-4,5C000000,-0724,0942,11119,030.1,045.4,0.386,734.1,01.19,0.508
2013-08-16 02:54:00,1586E-4,5C000000,-0724,0942,11137,030.2,045.4,0.386,734.1,01.19,0.508
2013-08-16 02:55:00,2289E-4,5C000000,-0724,0942,11099,030.2,045.4,0.386,734.1,01.19,0.508
2013-08-16 02:56:00,1797E-4,5C000000,-0724,0942,11217,030.2,045.4,0.386,734.1,01.19,0.508
2013-08-16 02:57:00,1590E-4,5C000000,-0724,0941,11110,030.2,045.4,0.386,734.1,01.19,0.508
2013-08-16 02:58:00,2306E-4,5C000000,-0724,0942,10971,030.2,045.4,0.386,734.1,01.19,0.508
2013-08-16 02:59:00,1857E-4,5C000000,-0724,0942,11088,030.2,045.5,0.386,734.1,01.19,0.508
2013-08-16 03:00:00,1300E-4,5C000000,-0724,0942,11171,030.2,045.4,0.386,734.1,01.19,0.508
2013-08-16 03:01:00,1766E-4,5C000000,-0724,0942,11180,030.2,045.4,0.386,734.1,01.19,0.508
2013-08-16 03:02:00,1902E-4,5C000000,-0724,0942,11059,030.2,045.4,0.386,734.1,01.19,0.508
2013-08-16 03:03:00,2060E-4,5C000000,-0724,0942,11048,030.2,045.4,0.386,734.1,01.19,0.508
2013-08-16 03:04:00,2261E-4,5C000000,-0724,0942,10961,030.2,045.4,0.386,734.1,01.19,0.508
2013-08-16 03:05:00,2274E-4,5C000000,-0724,0942,11141,030.2,045.4,0.386,734.1,01.19,0.508
2013-08-16 03:06:00,1753E-4,5C000000,-0724,0943,10992,030.2,045.4,0.386,734.1,01.19,0.508
2013-08-16 03:07:00,1608E-4,5C000000,-0724,0943,11187,030.2,045.4,0.386,734.1,01.19,0.508
2013-08-16 03:08:00,1809E-4,5C000000,-0724,0943,10951,030.2,045.4,0.386,734.1,01.19,0.508
2013-08-16 03:09:00,2305E-4,5C000000,-0724,0942,11023,030.2,045.4,0.386,734.1,01.19,0.508
2013-08-16 03:10:00,2132E-4,5C000000,-0724,0941,11072,030.2,045.4,0.386,734.1,01.19,0.508
2013-08-16 03:11:00,1458E-4,5C000000,-0724,0942,11114,030.2,045.4,0.386,734.1,01.19,0.508
2013-08-16 03:12:00,1741E-4,5C000000,-0724,0942,11136,030.2,045.4,0.386,734.1,01.19,0.508
2013-08-16 03:13:00,1625E-4,5C000000,-0724,0942,11171,030.2,045.4,0.386,734.1,01.19,0.508
2013-08-16 03:14:00,1154E-4,5C000000,-0724,0942,11145,030.2,045.4,0.386,734.1,01.19,0.508
2013-08-16 03:15:00,1502E-4,5C000000,-0724,0942,11168,030.2,045.4,0.386,734.1,01.19,0.508
2013-08-16 03:16:00,1944E-4,5C000000,-0724,0941,11123,030.2,045.4,0.386,734.1,01.19,0.508
2013-08-16 03:17:00,1160E-4,5C000000,-0724,0943,11138,030.2,045.4,0.386,734.1,01.19,0.508
2013-08-16 03:18:00,2283E-4,5C000000,-0724,0943,11154,030.2,045.4,0.386,734.1,01.19,0.508
2013-08-16 03:19:00,2028E-4,5C000000,-0724,0942,11039,030.2,045.4,0.386,734.1,01.19,0.508
2013-08-16 03:20:00,2011E-4,5C000000,-0724,0942,11274,030.2,045.4,0.386,734.1,01.19,0.508
2013-08-16 03:21:00,2312E-4,5C000000,-0724,0942,11237,030.2,045.4,0.386,734.1,01.19,0.508
2013-08-16 03:22:00,2270E-4,5C000000,-0724,0942,11172,030.2,045.4,0.386,734.1,01.19,0.508
2013-08-16 03:23:00,1574E-4,5C000000,-0724,0942,11089,030.2,045.4,0.386,734.1,01.19,0.508
2013-08-16 03:24:00,1623E-4,5C000000,-0724,0942,10960,030.3,045.4,0.386,734.1,01.19,0.508
2013-08-16 03:25:00,2167E-4,5C000000,-0724,0942,11178,030.3,045.4,0.386,734.1,01.19,0.508
2013-08-16 03:26:00,5519E-5,5C000000,-0724,0942,11082,030.3,045.5,0.386,734.1,01.19,0.508
2013-08-16 03:27:00,1061E-4,5C000000,-0724,0941,11204,030.3,045.5,0.385,734.1,01.19,0.508
2013-08-16 03:28:00,1904E-4,5C000000,-0724,0941,11007,030.3,045.5,0.386,734.1,01.19,0.508
2013-08-16 03:29:00,1527E-4,5C000000,-0724,0941,11120,030.3,045.4,0.386,734.1,01.19,0.508
2013-08-16 03:30:00,2088E-4,5C000000,-0724,0942,11162,030.3,045.4,0.385,734.1,01.19,0.508
2013-08-16 03:31:00,1988E-4,5C000000,-0724,0943,11091,030.3,045.4,0.386,734.1,01.19,0.508
2013-08-16 03:32:00,1280E-4,5C000000,-0724,0942,11165,030.3,045.4,0.386,734.1,01.19,0.508
2013-08-16 03:33:00,1850E-4,5C000000,-0724,0942,11077,030.3,045.4,0.385,734.1,01.19,0.508
2013-08-16 03:34:00,1890E-4,5C000000,-0724,0940,10993,030.3,045.4,0.386,734.1,01.19,0.508
2013-08-16 03:35:00,2041E-4,5C000000,-0724,0942,11064,030.3,045.4,0.386,734.1,01.19,0.508
2013-08-16 03:36:00,9972E-5,5C000000,-0724,0943,11126,030.3,045.4,0.385,734.1,01.19,0.508
2013-08-16 03:37:00,1862E-4,5C000000,-0724,0942,11107,030.3,045.5,0.386,734.1,01.19,0.508
2013-08-16 03:38:00,2240E-4,5C000000,-0724,0942,11179,030.3,045.5,0.386,734.1,01.19,0.508
2013-08-16 03:39:00,1438E-4,5C000000,-0724,0942,11058,030.3,045.4,0.385,734.1,01.19,0.508
2013-08-16 03:40:00,2546E-4,5C000000,-0724,0942,11147,030.3,045.4,0.386,734.1,01.19,0.508
2013-08-16 03:41:00,2507E-4,5C000000,-0724,0942,10749,030.3,045.4,0.386,734.1,01.19,0.508
2013-08-16 03:42:00,1654E-4,5C000000,-0724,0942,11108,030.3,045.4,0.385,734.1,01.19,0.508
2013-08-16 03:43:00,2414E-4,5C000000,-0724,0941,11166,030.3,045.4,0.386,734.1,01.19,0.508
2013-08-16 03:44:00,2133E-4,5C000000,-0724,0943,11101,030.3,045.4,0.386,734.1,01.19,0.508
2013-08-16 03:45:00,1646E-4,5C000000,-0724,0942,11117,030.3,045.4,0.385,734.1,01.19,0.508
2013-08-16 03:46:00,1208E-4,5C000000,-0724,0942,11073,030.3,045.5,0.386,734.1,01.19,0.508
2013-08-16 03:47:00,1475E-4,5C000000,-0724,0942,11093,030.3,045.4,0.386,734.1,01.19,0.508
2013-08-16 03:48:00,2373E-4,5C000000,-0724,0942,11121,030.3,045.4,0.386,734.1,01.19,0.508
2013-08-16 03:49:00,1491E-4,5C000000,-0724,0941,11159,030.3,045.4,0.385,734.1,01.19,0.508
2013-08-16 03:50:00,1359E-4,5C000000,-0724,0942,11147,030.3,045.4,0.386,734.1,01.19,0.508
2013-08-16 03:51:00,1554E-4,5C000000,-0724,0942,11112,030.4,045.5,0.385,734.1,01.19,0.508
2013-08-16 03:52:00,2185E-4,5C000000,-0724,0942,11106,030.4,045.4,0.385,734.1,01.19,0.508
2013-08-16 03:53:00,1928E-4,5C000000,-0724,0942,11179,030.4,045.4,0.386,734.1,01.19,0.508
2013-08-16 03:54:00,2131E-4,5C000000,-0724,0942,11258,030.4,045.4,0.385,734.1,01.19,0.508
2013-08-16 03:55:00,2373E-4,5C000000,-0724,0942,11123,030.4,045.4,0.386,734.1,01.19,0.508
2013-08-16 03:56:00,2682E-4,5C000000,-0724,0942,11023,030.4,045.4,0.386,734.1,01.19,0.508
2013-08-16 03:57:00,2223E-4,5C000000,-0724,0942,11123,030.4,045.4,0.385,734.1,01.19,0.508
2013-08-16 03:58:00,1649E-4,5C000000,-0724,0942,11073,030.4,045.4,0.386,734.1,01.19,0.508
2013-08-16 03:59:00,2396E-4,5C000000,-0724,0942,11193,030.4,045.4,0.386,734.1,01.19,0.508
2013-08-16 04:00:00,1629E-4,5C000000,-0724,0943,11191,030.4,045.5,0.385,734.1,01.19,0.508
2013-08-16 04:01:00,2326E-4,5C000000,-0724,0942,11147,030.4,045.5,0.385,734.1,01.19,0.508
2013-08-16 04:02:00,1340E-4,5C000000,-0724,0942,11056,030.4,045.5,0.386,734.1,01.19,0.508
2013-08-16 04:03:00,2651E-4,5C000000,-0724,0944,11096,030.4,045.5,0.385,734.1,01.19,0.508
2013-08-16 04:04:00,2413E-4,5C000000,-0724,0943,10948,030.4,045.5,0.386,734.1,01.19,0.508
2013-08-16 04:05:00,2392E-4,5C000000,-0724,0942,11157,030.4,045.5,0.386,734.1,01.19,0.508
2013-08-16 04:06:00,2309E-4,5C000000,-0724,0942,11123,030.4,045.5,0.385,734.1,01.19,0.508
2013-08-16 04:07:00,2233E-4,5C000000,-0724,0942,11156,030.4,045.4,0.385,734.1,01.19,0.508
2013-08-16 04:08:00,6397E-5,5C000000,-0724,0942,11027,030.4,045.5,0.386,734.1,01.19,0.508
2013-08-16 04:09:00,1250E-4,5C000000,-0724,0942,10968,030.4,045.5,0.385,734.1,01.19,0.508
2013-08-16 04:10:00,1455E-4,5C000000,-0724,0942,11197,030.4,045.5,0.386,734.1,01.19,0.508
2013-08-16 04:11:00,1335E-4,5C000000,-0724,0942,11022,030.5,045.4,0.386,734.1,01.19,0.508
2013-08-16 04:12:00,2182E-4,5C000000,-0724,0942,11217,030.4,045.4,0.385,734.1,01.19,0.508
2013-08-16 04:13:00,2135E-4,5C000000,-0724,0942,11176,030.4,045.4,0.386,734.1,01.19,0.508
2013-08-16 04:14:00,9741E-5,5C000000,-0724,0942,10859,030.4,045.4,0.386,734.1,01.19,0.508
2013-08-16 04:15:00,1457E-4,5C000000,-0724,0942,11034,030.4,045.5,0.385,734.1,01.19,0.508
2013-08-16 04:16:00,1733E-4,5C000000,-0724,0942,11048,030.4,045.4,0.386,734.1,01.19,0.508
2013-08-16 04:17:00,2011E-4,5C000000,-0724,0941,11180,030.4,045.4,0.386,734.1,01.19,0.508
2013-08-16 04:18:00,2417E-4,5C000000,-0724,0942,11090,030.4,045.4,0.385,734.1,01.19,0.508
2013-08-16 04:19:00,2162E-4,5C000000,-0724,0942,10906,030.4,045.4,0.386,734.1,01.19,0.508
2013-08-16 04:20:00,2315E-4,5C000000,-0724,0942,11036,030.4,045.4,0.386,734.1,01.19,0.508